RH
69 70 69 64 60 56 50 49 60 73 78 79 78 74 70 67 67 69 60 52 56 59 66 65 52 47 38 34 45 50 56 63 64 69 75 80 83 82 81 81 79 78 76 76 78 80 84 86 86 84 82 80 79 77 74 72 71 69 67 67 68 66 65 64 62 60 56 51 50 49 51 53 54 54 50 46 46 49 51 50 55 71 88 100 104 104
69 69 69 65 58 52 47 49 58 70 76 76 74 68 67 66 61 61 56 54 63 67 70 65 50 42 35 38 55 62 64 69 70 75 79 82 86 89 94 96 94 90 85 83 81 80 81 83 86 86 83 80 76 76 76 74 72 71 70 69 69 70 70 68 67 65 61 56 55 54 51 50 53 55 55 52 49 46 48 50 52 56 65 78 95 106
71 69 69 64 56 50 47 48 56 71 78 76 73 67 66 63 54 54 58 60 65 65 63 60 51 44 41 47 62 70 75 78 79 82 85 85 88 93 99 103 103 101 98 94 89 85 83 81 81 82 81 78 73 71 70 72 72 71 70 70 70 71 72 71 70 70 68 61 56 57 56 52 51 53 55 56 55 51 47 46 48 53 56 59 70 87
72 69 67 59 50 47 45 45 55 69 76 75 71 66 63 60 54 56 63 65 62 57 54 53 49 47 52 59 67 74 80 82 83 86 89 91 94 98 101 103 104 104 104 101 98 95 92 87 82 78 76 74 71 69 66 66 67 69 69 68 69 70 71 71 70 70 73 71 63 57 57 57 54 53 54 56 57 57 55 49 45 47 52 54 56 62
73 70 61 51 44 41 42 48 58 66 71 71 66 61 59 59 61 63 65 60 53 51 51 52 46 45 59 70 72 79 83 80 80 85 90 93 96 100 103 104 105 105 105 103 100 98 96 93 88 82 78 74 72 70 68 65 63 63 65 65 67 68 68 69 70 69 70 74 72 64 58 58 57 55 55 55 57 58 60 58 52 46 44 47 51 53
74 67 54 47 43 42 49 60 67 67 68 68 64 61 60 63 64 63 59 49 44 51 58 63 54 43 59 75 73 81 87 83 85 92 97 98 99 103 105 104 104 102 100 98 96 94 93 91 89 87 84 81 78 74 70 68 64 61 60 60 62 63 65 66 66 67 67 70 73 71 66 61 59 58 57 55 56 57 58 60 60 56 50 45 44 47
72 60 48 45 45 50 62 70 71 70 70 71 69 68 68 68 63 59 57 49 47 55 62 77 77 54 57 70 68 75 83 83 87 93 98 101 103 105 103 100 99 97 96 95 94 93 92 92 91 90 88 86 83 77 71 68 65 63 61 59 58 58 59 61 63 63 64 65 67 70 69 66 63 61 60 57 56 56 57 59 61 62 61 57 48 45
66 52 46 46 50 63 75 78 78 75 73 73 72 71 68 64 60 60 61 58 61 61 61 87 102 72 56 63 62 67 74 75 78 84 87 91 95 96 96 95 94 94 94 94 94 94 94 94 93 92 89 86 82 78 73 69 66 65 64 62 60 58 56 55 56 56 57 58 59 62 64 65 65 65 64 63 61 60 59 58 59 60 63 66 61 53
57 47 45 47 55 70 79 80 76 69 66 67 67 64 58 56 59 63 63 63 67 60 56 87 107 82 59 60 58 56 61 68 75 83 88 88 88 88 88 89 92 93 94 94 94 92 91 89 88 86 84 82 80 78 75 72 69 67 66 65 63 60 58 53 49 47 48 48 48 50 52 55 59 62 65 67 68 67 65 62 59 58 59 64 66 63
49 45 45 49 63 76 80 78 75 71 70 67 62 57 54 56 63 65 64 66 67 58 60 84 98 86 69 59 56 53 54 62 73 81 87 89 86 81 78 79 82 85 87 87 86 83 80 77 75 75 75 75 76 76 75 74 72 71 69 68 66 63 60 56 50 45 42 40 39 39 39 41 44 49 55 62 67 70 71 68 64 61 59 58 62 64
45 47 52 59 73 83 85 85 86 83 76 66 60 58 59 65 74 78 75 74 70 64 75 92 95 96 88 71 66 68 65 66 71 73 75 75 73 69 67 67 67 68 69 69 71 70 69 67 65 65 66 68 70 71 73 73 73 73 72 70 69 66 63 59 54 49 43 39 35 32 31 31 32 35 40 47 56 64 70 71 68 66 64 61 60 60
52 57 65 74 81 86 87 87 88 83 73 67 68 71 71 73 77 80 78 77 72 63 71 83 80 80 78 67 62 62 56 54 54 53 54 55 57 58 59 59 58 58 58 58 60 62 63 62 60 59 60 61 63 65 67 69 70 71 71 71 69 67 65 63 58 53 48 42 36 31 27 26 26 27 29 33 39 48 57 67 70 69 68 68 66 64
64 70 77 82 86 92 91 83 78 76 75 79 82 82 79 72 65 61 60 62 61 55 56 60 54 50 50 48 47 45 41 40 37 35 36 39 45 49 52 54 55 54 54 53 54 55 57 59 59 59 59 59 60 61 62 64 66 68 69 69 67 65 63 63 61 57 52 46 39 33 28 25 25 25 26 27 29 33 40 50 61 68 71 71 70 70
70 82 89 88 88 91 86 79 74 71 74 80 83 84 82 76 67 55 45 42 42 41 44 44 41 41 41 37 38 39 38 36 34 33 32 34 36 39 41 44 47 49 50 50 50 51 53 56 59 59 59 59 59 59 59 61 63 64 65 66 65 64 61 60 59 57 55 50 43 36 30 27 26 26 26 27 27 28 30 34 41 53 64 71 71 71
73 93 100 93 84 78 74 80 84 78 73 72 74 79 79 74 65 51 36 29 26 24 26 29 33 36 36 33 32 33 30 28 28 28 27 27 26 25 26 27 31 34 37 41 43 45 46 47 50 51 52 52 53 54 55 56 57 58 58 59 59 60 59 58 57 55 53 51 48 42 35 29 26 26 27 28 28 28 28 28 30 35 44 57 67 71
83 104 107 88 70 69 78 90 95 89 77 67 63 63 61 55 49 41 31 27 27 24 22 25 28 27 26 26 23 21 20 19 20 18 17 17 16 16 16 16 18 20 22 25 28 30 32 32 34 37 40 40 40 42 44 45 46 48 49 49 50 51 51 52 53 53 52 50 49 47 43 37 29 26 27 28 30 30 29 29 29 29 31 38 49 61
84 98 105 91 71 75 92 94 90 87 75 60 49 43 41 38 36 35 31 28 28 26 22 21 21 17 16 15 12 11 12 12 12 11 11 11 11 12 12 13 14 15 16 16 17 18 19 20 22 24 27 30 29 29 31 33 34 35 36 38 40 41 41 43 44 47 49 49 49 48 47 44 38 32 29 28 29 30 31 32 31 31 31 31 34 41
73 71 89 99 83 75 85 83 73 71 65 52 40 33 30 28 28 31 31 26 23 20 15 13 12 11 10 9 7 8 8 8 8 8 8 8 8 9 10 11 12 13 14 15 16 16 16 16 16 16 17 20 22 22 23 25 26 26 27 28 29 30 32 34 35 38 41 45 48 49 49 48 44 40 35 31 30 30 31 32 33 33 33 33 33 33
66 56 69 90 85 72 73 68 54 49 48 46 41 35 32 29 25 25 25 22 18 14 10 9 8 8 8 8 7 7 8 7 7 7 7 7 7 7 7 8 9 9 11 12 14 15 16 17 17 16 16 16 18 19 19 19 20 21 22 22 23 24 24 26 28 30 34 38 42 47 50 52 51 48 43 37 34 33 32 32 32 33 34 35 35 34
66 57 55 66 73 70 64 55 43 37 35 38 38 33 29 26 23 20 17 15 12 10 8 7 7 6 6 7 7 7 7 6 6 6 6 6 6 6 6 6 7 7 8 9 10 11 12 14 15 16 15 14 15 17 18 18 18 18 18 19 20 20 21 22 23 24 27 30 35 39 44 49 54 55 53 47 41 37 35 35 34 33 33 34 35 35
68 59 50 50 55 55 51 42 36 33 29 28 27 22 19 18 17 14 11 10 9 8 7 7 6 6 5 5 6 6 6 5 5 5 5 5 5 5 5 5 5 5 6 7 7 8 9 9 10 11 11 11 11 12 15 17 17 18 19 19 19 19 20 20 20 20 21 23 27 31 34 38 45 52 56 55 51 45 40 38 38 37 35 34 34 35
66 55 44 41 40 38 37 34 32 32 30 28 22 16 13 12 10 8 6 7 8 7 7 7 6 5 5 5 5 5 5 5 5 4 4 4 4 4 3 3 3 3 4 4 5 5 6 7 7 7 8 9 8 9 11 13 14 16 18 19 19 19 20 20 20 19 19 19 20 23 27 30 33 39 47 54 56 53 49 44 42 41 40 38 36 35
62 51 39 35 34 33 34 36 38 36 31 25 19 13 10 9 8 8 7 6 7 7 7 7 6 5 4 4 4 3 4 4 4 4 3 3 3 3 3 3 3 3 3 3 3 4 4 5 5 5 6 6 7 7 7 9 10 11 12 14 15 16 16 18 19 19 19 19 19 19 21 24 26 29 34 41 49 54 54 51 48 45 43 43 41 39
56 45 35 31 29 31 37 40 38 32 23 17 13 10 9 9 8 8 7 7 6 6 6 6 5 5 4 4 4 3 3 3 3 3 3 3 3 3 3 3 3 3 3 3 3 3 3 3 4 4 4 4 5 5 5 6 7 7 8 9 10 11 11 11 13 15 17 18 18 19 19 20 22 24 26 30 37 45 50 52 51 49 47 46 45 43
45 39 34 32 29 27 27 25 20 15 12 9 7 7 7 7 7 7 7 7 6 5 5 4 3 4 4 3 3 3 3 3 3 4 3 3 3 3 3 3 3 3 3 3 3 3 3 3 4 4 4 4 4 4 5 5 5 5 6 6 7 8 8 8 8 9 11 13 15 16 18 19 20 22 23 25 28 33 39 45 48 49 47 47 48 47
45 43 40 39 33 23 16 13 9 7 6 6 7 7 7 7 7 7 7 5 4 4 3 3 3 3 4 4 3 3 4 4 4 4 4 4 4 3 3 3 3 3 3 3 3 3 4 4 4 4 4 4 4 4 4 4 5 5 5 5 5 5 6 7 7 7 8 9 10 12 13 16 18 20 21 23 25 27 30 35 40 45 46 45 46 48
47 43 41 37 31 22 18 15 12 9 8 8 8 7 6 7 7 6 5 4 3 3 3 3 3 3 4 4 4 3 4 4 4 4 4 4 4 3 3 3 3 3 3 4 4 4 4 4 4 5 5 4 4 4 4 4 4 4 5 5 5 5 5 4 5 6 6 7 8 9 10 12 13 15 17 19 21 23 25 28 31 37 41 43 43 45
41 36 33 30 29 26 23 20 16 14 12 10 9 7 6 6 5 5 4 4 3 3 3 3 4 4 4 4 4 4 4 4 4 4 4 4 3 3 3 3 3 3 4 4 4 4 4 4 4 4 5 4 4 4 4 4 4 4 4 4 4 4 5 4 4 5 5 5 6 7 9 10 11 12 13 15 16 19 21 22 24 29 34 38 40 42
35 31 28 29 32 29 24 22 19 16 12 9 8 7 6 5 4 4 4 3 3 3 3 3 4 4 4 4 4 4 4 4 4 4 4 4 4 4 4 4 4 4 4 4 4 4 4 4 4 4 4 4 4 4 4 4 4 4 4 4 4 4 4 5 5 5 5 5 5 6 6 8 10 10 11 11 13 15 18 19 19 21 26 31 35 36
36 33 31 32 32 27 22 21 18 15 12 10 8 7 6 5 5 4 4 3 2 2 3 3 4 4 4 3 4 4 4 4 4 4 4 3 3 3 3 4 4 4 4 4 4 4 4 4 4 4 4 4 4 4 4 4 3 3 4 4 4 4 5 5 5 5 5 5 5 5 5 5 7 8 9 10 10 12 15 17 18 17 19 23 28 31
38 35 32 29 26 21 19 17 15 13 13 11 9 7 7 6 5 4 4 3 2 3 3 4 3 4 4 3 3 3 3 4 3 3 3 3 3 3 3 3 3 3 3 3 3 3 3 3 3 4 4 4 4 4 3 4 3 3 4 4 4 4 4 5 5 5 5 6 5 5 5 5 5 6 7 8 9 9 11 14 16 17 17 18 21 25
39 35 29 23 19 17 15 14 13 12 13 11 9 8 6 5 5 5 4 3 3 3 4 4 4 4 4 4 5 5 5 5 5 4 3 3 4 4 4 4 4 4 3 3 3 3 2 3 2 3 3 3 3 3 3 3 3 3 3 4 4 4 4 4 5 5 5 5 5 5 5 5 5 5 6 6 7 8 9 11 12 15 17 18 18 20
40 33 23 16 15 14 13 13 13 12 11 10 8 6 6 6 5 6 5 4 4 4 4 4 4 4 4 5 5 5 6 6 6 4 4 4 5 5 5 5 4 4 4 4 4 3 3 3 3 2 3 3 2 3 3 3 3 3 4 4 4 4 4 4 4 5 5 5 4 5 5 5 5 5 6 6 6 7 7 9 10 12 13 15 16 18
36 27 19 15 14 13 12 12 14 13 10 8 7 6 6 5 5 5 5 4 4 4 4 4 4 4 4 4 4 4 5 5 5 4 3 4 4 4 5 5 5 5 5 4 4 4 4 4 4 3 3 3 3 3 3 3 3 3 3 3 4 4 4 4 4 4 4 4 4 4 5 5 5 5 5 5 5 6 6 7 8 9 11 12 13 15
28 21 17 15 13 13 14 14 13 11 10 8 7 6 5 5 4 5 5 4 4 4 5 5 5 5 5 5 4 4 5 6 6 4 4 4 4 4 4 4 4 4 4 4 4 4 4 4 4 4 3 3 3 3 3 3 3 3 3 3 3 4 4 4 4 4 3 3 4 4 4 5 5 4 5 4 4 5 6 6 6 7 8 8 10 11
23 18 17 15 13 13 15 15 13 13 11 9 7 5 4 4 4 5 6 5 5 5 5 5 5 5 5 5 5 5 6 7 6 4 4 4 4 4 4 4 4 4 3 4 4 3 4 3 3 4 3 3 3 3 3 3 3 3 3 3 3 3 4 4 4 4 3 3 3 3 3 4 5 4 4 4 4 5 5 5 6 6 6 6 7 8
21 19 17 15 14 14 16 15 14 13 11 8 6 5 4 4 4 4 5 5 5 5 5 5 5 5 5 5 5 5 5 6 6 5 4 4 3 4 4 3 4 4 3 3 3 3 3 3 3 3 3 3 3 3 3 3 3 3 3 3 3 3 3 4 4 3 3 3 3 3 3 4 4 5 5 5 5 5 5 5 5 5 5 6 6 7
22 21 18 16 16 18 19 16 12 11 9 7 6 5 4 4 4 4 4 4 4 4 4 5 5 5 6 5 5 5 5 6 7 5 4 5 4 4 4 4 4 4 4 4 4 4 3 3 3 3 3 3 3 3 3 3 3 3 3 3 3 3 3 3 3 3 3 3 3 3 3 4 4 4 5 5 5 5 5 5 5 5 5 5 6 6
25 24 21 19 20 20 19 16 12 10 8 6 6 6 4 4 4 4 5 5 5 4 4 5 5 5 6 6 5 5 5 5 6 6 5 5 5 5 5 5 5 5 4 4 4 4 4 4 4 4 4 3 3 3 3 3 3 3 3 3 3 3 3 3 3 3 3 3 3 3 3 3 4 4 4 5 5 6 6 6 6 6 5 5 6 6
28 27 23 21 22 21 18 16 14 12 10 8 6 5 4 5 5 4 5 6 6 6 5 5 5 6 6 6 6 5 5 5 5 6 5 4 5 5 5 5 5 5 5 4 4 4 4 4 4 4 4 4 4 3 3 3 3 3 3 3 3 3 3 3 3 3 3 3 3 4 4 4 4 4 4 4 5 5 6 6 7 6 6 6 6 6
28 27 23 22 24 21 16 14 14 13 11 8 6 5 5 5 5 5 5 6 6 6 6 6 5 6 5 5 5 5 5 5 5 5 5 4 4 4 4 4 4 4 4 4 4 4 4 4 4 4 4 4 4 4 3 3 3 3 3 3 3 3 3 3 3 4 4 4 4 4 4 4 4 4 4 4 5 5 5 6 6 7 7 7 7 7
27 25 22 23 25 23 18 15 14 13 11 9 8 7 6 4 5 5 5 5 5 6 6 6 6 6 6 6 6 5 5 5 5 5 4 4 4 4 4 4 4 4 4 4 4 4 4 4 4 4 4 4 4 4 4 4 3 3 3 3 3 3 3 4 4 4 4 4 4 4 4 4 4 5 5 5 5 5 5 5 6 6 7 8 8 8
28 25 22 22 25 26 22 17 14 13 12 10 8 7 5 4 4 5 4 5 5 5 6 6 6 6 7 7 6 6 5 5 5 5 5 4 4 4 4 4 4 5 5 5 4 4 4 4 4 4 4 4 4 4 4 4 4 4 3 3 3 3 4 4 4 4 4 4 4 4 4 4 4 4 5 5 5 5 5 5 5 6 6 7 7 8
29 27 25 26 28 28 26 23 20 16 13 11 8 8 7 5 4 5 5 5 6 6 6 6 6 6 6 7 6 6 5 5 5 5 5 5 5 5 4 5 5 5 5 5 5 5 5 4 4 4 4 4 4 4 4 4 4 4 4 4 3 3 4 4 4 4 4 4 4 4 4 4 5 5 5 5 5 5 6 6 6 6 6 6 6 7
30 28 28 29 30 30 29 27 24 19 15 14 11 9 8 7 6 6 6 6 6 6 5 5 6 6 5 6 6 6 5 5 5 5 5 5 5 5 5 5 5 5 5 6 6 5 5 5 5 5 4 4 5 5 4 4 4 4 4 4 4 4 4 4 4 4 4 4 4 4 4 4 4 5 5 5 5 6 6 6 6 7 6 7 7 7
34 31 30 30 31 32 30 29 27 23 19 17 15 11 10 9 8 6 6 6 6 6 5 5 5 5 5 5 6 6 5 5 5 5 5 5 5 6 5 5 6 6 5 5 6 6 6 6 5 5 5 5 5 5 5 4 4 4 4 4 4 4 4 4 4 4 4 4 4 4 4 4 4 5 5 5 5 6 6 6 7 7 7 7 7 7
37 35 34 34 34 33 31 30 30 26 19 16 16 15 12 10 8 6 6 6 6 6 6 5 5 5 5 5 5 6 5 5 5 5 5 5 6 6 6 5 5 6 6 6 6 6 6 6 6 6 6 5 5 5 5 5 5 4 4 4 4 4 4 4 4 4 4 5 4 4 4 4 4 5 5 5 5 5 6 6 6 7 7 7 8 8
44 38 36 37 37 35 32 30 31 32 27 21 17 15 12 10 8 7 6 6 6 7 6 6 5 5 5 5 6 6 6 5 5 5 5 5 6 6 6 6 6 6 6 6 6 6 6 6 6 6 6 6 6 6 5 5 5 5 5 4 4 4 4 4 5 5 5 5 5 5 5 5 5 5 5 5 5 5 5 5 6 6 7 7 8 8
50 43 37 36 35 35 32 28 28 33 33 26 18 14 12 11 9 8 7 7 7 7 7 6 6 5 5 5 6 6 6 6 6 5 5 5 6 6 6 6 6 6 6 6 6 6 6 6 6 6 6 6 6 6 6 6 5 5 5 5 4 4 4 4 5 4 5 5 5 5 5 5 5 5 5 5 5 5 5 5 5 6 6 7 7 8
56 48 41 36 34 34 32 29 27 29 28 24 18 14 12 11 10 9 8 7 7 7 7 7 6 6 6 5 5 6 6 6 6 5 5 5 5 6 6 6 6 6 5 6 6 5 6 6 6 6 6 6 6 6 6 6 5 5 5 5 5 5 5 4 5 5 5 5 5 5 5 5 5 6 5 5 6 5 5 6 5 6 6 6 6 7
55 49 44 41 39 37 34 30 28 28 26 21 17 14 12 11 10 9 8 7 7 7 7 6 6 6 6 6 6 6 6 6 6 5 5 5 5 6 6 6 6 6 6 6 6 6 6 5 5 5 5 5 5 5 5 5 5 5 5 5 5 5 5 5 5 5 5 5 5 5 5 5 6 6 6 6 6 6 6 6 6 6 6 6 6 6
Wind_Speed
75 76 78 78 77 77 76 75 73 71 72 72 73 73 73 73 73 74 75 73 72 72 70 71 71 69 69 65 61 61 62 64 65 66 67 69 71 73 74 75 74 74 73 73 73 73 73 74 75 75 74 74 73 73 73 72 71 71 70 69 69 70 71 72 72 74 75 74 74 76 79 81 83 86 89 93 97 100 101 102 104 108 111 112 111 111
77 77 78 79 79 78 77 77 76 75 75 75 76 75 75 76 75 74 75 74 74 73 70 71 72 71 69 64 62 63 64 65 67 68 69 71 73 75 77 78 78 78 78 78 78 77 77 77 77 78 77 77 75 75 75 74 74 73 73 72 71 71 72 73 74 75 77 76 75 76 78 80 82 85 87 90 93 97 101 103 104 107 111 113 113 114
79 79 80 80 80 79 79 79 78 78 79 79 79 79 78 78 77 75 76 77 76 73 70 70 72 72 70 65 63 65 66 68 69 70 72 73 75 77 78 80 81 82 83 83 83 83 82 81 80 80 79 79 78 77 77 76 76 76 75 75 74 74 74 75 75 76 78 78 77 77 78 79 81 83 86 88 91 94 97 101 104 106 110 112 114 115
81 81 81 81 79 79 79 80 80 79 80 82 82 82 81 80 80 79 78 78 77 73 71 71 71 71 71 70 68 68 69 71 72 73 75 76 78 79 81 82 83 85 86 87 88 88 88 87 85 84 82 81 81 80 79 78 78 78 78 77 77 76 76 76 77 77 77 80 81 80 80 80 81 82 84 87 89 92 94 97 101 105 109 112 114 116
83 84 83 82 81 81 81 82 82 81 81 82 83 84 83 83 83 82 81 80 77 74 74 75 73 72 73 73 73 73 74 74 74 75 77 78 80 82 83 85 87 89 90 91 91 91 91 91 90 88 86 85 83 83 83 82 81 81 80 80 79 79 78 78 78 78 78 80 82 83 82 82 83 83 84 86 88 91 93 95 98 101 106 110 113 115
85 85 84 83 83 84 84 83 84 84 83 83 85 86 86 86 85 83 83 82 79 76 76 78 78 76 77 78 77 77 78 78 78 79 80 81 83 85 87 89 90 92 93 93 93 93 93 93 92 92 91 90 88 87 86 85 85 84 82 81 81 80 80 80 80 80 80 81 83 84 85 85 85 85 86 87 88 90 92 94 96 98 101 105 108 111
86 86 85 85 85 85 85 85 85 86 85 86 87 88 87 87 86 84 85 85 83 80 78 79 82 83 84 84 82 81 81 81 81 81 83 85 87 89 90 92 93 94 94 95 95 94 94 94 94 94 94 94 93 91 90 88 87 86 84 83 83 82 81 81 82 82 83 83 84 86 87 87 88 88 88 89 89 90 91 93 95 97 98 101 104 107
87 86 86 86 86 86 86 87 87 88 87 87 88 88 87 86 86 86 87 88 87 87 82 79 85 91 92 90 88 87 86 85 84 84 86 89 91 92 94 95 95 96 96 96 96 96 96 96 96 96 96 96 96 95 93 91 89 88 87 86 85 85 84 84 83 84 85 85 86 88 89 89 90 90 91 91 91 91 92 93 94 96 97 100 102 104
87 87 86 86 86 87 88 89 90 91 90 89 88 88 87 87 87 88 89 90 91 92 86 82 90 97 97 96 95 92 91 90 90 90 92 93 94 96 97 98 98 98 98 98 98 98 97 97 97 97 97 97 96 95 94 93 91 90 89 89 89 88 88 87 86 86 86 87 87 88 90 91 91 92 93 93 93 93 94 94 94 96 97 98 101 103
87 87 88 88 88 89 91 92 94 94 93 91 90 90 90 90 90 92 93 94 96 96 91 90 96 101 103 103 102 99 97 96 95 96 97 97 98 99 99 100 100 101 101 100 100 100 99 98 97 97 96 95 95 94 94 94 93 93 92 92 91 91 91 90 89 88 88 88 88 89 90 92 93 93 94 95 96 96 96 97 97 97 97 98 100 102
88 88 88 89 90 91 92 94 95 95 94 93 93 94 94 93 93 96 97 99 101 99 96 97 101 104 107 108 108 107 104 103 102 101 100 101 101 101 101 101 101 101 101 100 100 100 99 98 97 96 95 95 94 94 94 94 94 95 95 94 94 93 93 92 91 90 90 89 89 90 91 92 93 94 95 96 98 99 99 99 99 99 99 99 100 101
89 89 89 91 92 93 93 93 94 94 94 95 96 97 98 97 97 98 98 101 104 101 99 101 104 105 107 108 108 108 106 104 103 101 100 100 100 101 101 101 101 100 99 99 99 99 98 98 97 96 96 95 95 95 95 95 96 96 96 96 96 95 94 94 93 92 91 91 90 91 92 92 94 95 96 97 98 100 101 102 102 102 102 101 101 101
88 89 90 93 93 94 94 94 93 93 94 96 98 100 102 102 102 101 100 102 105 104 102 104 105 106 107 107 107 107 106 105 103 99 97 96 97 98 99 99 99 99 99 99 98 98 98 98 98 97 97 96 96 96 96 97 97 97 97 97 97 96 96 95 95 94 94 93 92 92 92 93 94 95 96 97 98 100 102 103 104 105 105 104 104 104
87 88 90 93 94 93 94 95 96 96 96 97 100 103 106 108 109 108 104 104 104 103 103 103 105 107 108 106 105 104 105 104 102 100 98 97 96 96 97 97 98 98 98 98 98 98 98 98 98 98 98 98 97 97 97 97 97 97 98 98 98 98 98 97 97 96 96 95 94 94 94 94 94 95 96 97 99 100 101 103 105 107 107 108 107 107
89 89 90 93 94 93 94 97 100 102 102 102 103 106 109 111 114 113 110 107 104 102 99 97 100 104 106 105 104 102 101 100 100 100 100 99 98 97 97 96 96 96 97 98 98 98 98 98 99 99 99 99 98 98 98 98 98 98 99 99 99 99 99 99 99 98 98 98 97 96 95 95 95 95 96 97 98 99 101 103 104 106 108 109 110 110
91 89 90 92 94 95 96 98 103 107 108 107 107 107 109 111 113 114 112 109 108 106 101 97 99 101 102 104 103 101 100 99 99 99 99 100 99 99 98 97 96 96 96 97 98 98 98 98 98 99 100 100 100 99 99 99 99 99 100 100 100 101 100 100 100 100 99 99 99 98 97 96 96 96 96 97 97 98 100 102 103 105 107 109 110 111
92 87 87 90 92 96 98 100 104 109 112 112 110 109 109 109 111 112 111 107 106 106 102 98 99 100 100 102 101 99 99 98 99 98 97 97 97 97 97 97 97 97 97 97 97 97 97 98 98 98 99 100 101 101 100 101 101 101 101 101 101 102 102 102 101 101 100 100 100 100 100 99 98 97 97 98 98 98 99 100 102 104 106 107 109 111
96 90 88 91 92 95 100 103 104 108 112 114 112 111 110 108 106 108 110 107 105 105 102 98 98 99 100 101 99 99 99 98 98 98 96 95 94 94 94 94 94 95 95 95 96 97 97 97 98 97 97 98 100 101 101 101 102 102 102 102 102 102 102 102 102 102 101 101 101 101 101 101 100 99 99 99 99 99 99 100 101 102 104 106 107 109
100 97 93 94 96 98 101 105 105 106 109 112 113 112 110 109 105 104 106 107 107 106 102 99 98 97 98 99 98 99 99 97 96 96 95 95 94 93 92 92 92 92 91 92 93 95 95 96 97 98 98 97 97 99 100 101 101 102 102 103 103 103 102 102 102 102 102 102 102 102 102 102 102 102 102 101 101 101 101 101 101 102 103 105 106 108
102 103 99 98 100 102 104 107 107 106 106 106 108 107 106 106 105 105 104 105 105 105 102 100 97 95 94 94 95 96 97 97 95 94 93 93 92 92 91 90 90 90 89 90 91 92 93 94 96 97 99 98 96 97 99 100 100 101 101 102 103 103 103 103 102 102 102 102 103 103 103 103 104 104 104 104 103 103 103 103 102 102 102 103 105 107
103 106 105 102 103 104 106 107 107 107 105 104 104 103 103 103 103 102 100 100 102 102 100 99 97 94 93 91 91 92 94 95 95 94 92 91 90 90 89 88 87 87 87 88 89 91 92 93 95 96 97 98 96 95 96 99 99 99 100 101 102 103 103 103 103 103 102 102 103 103 104 105 105 105 105 106 106 105 105 105 104 103 103 103 104 105
105 107 107 105 105 105 105 105 106 106 106 106 107 106 104 103 102 101 97 95 97 99 99 99 97 95 92 90 89 88 90 91 92 93 92 91 90 90 89 88 86 85 85 84 85 87 89 91 93 94 95 96 96 95 94 97 98 99 100 101 102 102 103 103 104 103 103 103 103 103 104 106 106 106 106 106 107 107 107 107 106 106 105 104 104 105
107 109 108 107 106 106 105 106 106 107 106 105 107 106 105 104 103 102 99 95 93 94 95 97 97 96 93 91 88 86 85 87 89 90 90 89 89 89 88 88 87 86 84 83 83 83 84 87 89 91 92 93 95 94 94 95 97 99 100 101 102 103 103 103 103 104 104 104 104 104 104 105 106 107 107 106 107 108 108 109 109 108 107 106 106 106
108 109 109 107 105 103 102 102 102 103 102 101 102 103 103 102 101 101 99 96 93 90 90 91 91 91 91 90 88 85 83 83 85 86 86 86 86 86 86 85 85 84 84 83 82 82 81 83 84 87 89 90 91 92 93 94 96 97 98 100 102 103 104 103 103 103 104 104 104 104 104 104 105 106 107 107 107 107 108 109 110 110 109 109 108 108
107 109 110 110 108 104 99 96 96 96 97 99 100 101 101 101 101 100 98 96 93 89 88 87 85 83 84 86 85 82 81 81 81 82 83 83 82 82 83 83 82 82 81 81 81 80 80 79 80 82 84 86 87 88 89 91 93 95 96 97 99 101 103 103 103 103 103 104 104 104 104 104 105 105 106 106 107 107 108 108 109 111 111 110 110 110
107 108 109 110 110 107 103 101 100 100 100 102 103 103 102 102 100 98 96 93 89 85 85 85 84 80 80 83 82 79 78 78 78 78 80 81 81 81 81 81 80 80 79 79 78 78 77 77 77 78 80 82 84 85 85 86 89 91 93 94 96 98 99 100 101 102 102 102 103 104 104 105 105 106 106 106 107 107 108 108 108 110 111 111 111 111
105 104 104 105 107 107 106 106 107 107 107 105 105 104 102 100 97 95 92 89 85 82 81 82 82 79 77 80 79 77 76 76 74 74 76 78 79 79 80 79 78 78 77 76 76 76 75 74 74 75 77 79 81 82 82 83 84 87 88 90 92 94 95 96 97 99 100 100 101 102 104 105 106 106 106 107 107 107 108 108 108 108 110 110 111 111
101 100 99 100 103 106 107 108 108 108 107 105 103 101 99 96 93 90 88 85 82 79 77 77 78 77 76 77 76 74 75 75 73 73 74 75 76 77 77 77 76 76 75 75 75 74 73 71 70 71 74 76 78 79 79 80 81 82 84 85 87 89 91 91 92 94 95 97 98 100 102 104 105 106 107 107 107 107 108 109 108 108 109 110 111 111
99 99 99 100 103 105 106 106 106 105 105 103 100 98 96 94 92 90 87 84 80 77 75 73 72 73 75 74 72 72 73 73 72 73 72 73 73 73 73 72 73 74 74 74 74 73 72 71 70 69 71 73 74 75 76 77 78 78 79 80 81 83 85 86 88 90 90 92 94 96 99 101 103 105 106 106 106 107 108 109 109 108 109 110 111 111
99 99 99 100 101 103 103 102 102 102 102 102 100 98 96 95 93 91 88 84 79 76 74 72 71 72 73 72 70 70 71 71 71 71 70 70 69 69 68 67 67 68 70 71 71 70 69 69 69 69 69 70 72 72 73 73 74 74 74 75 76 77 79 81 83 85 86 88 90 92 94 97 99 102 104 105 105 105 107 108 109 109 108 109 110 111
99 99 99 99 99 99 98 97 97 96 98 99 97 96 95 93 91 90 88 84 80 76 75 74 73 73 73 73 72 71 72 71 71 71 70 69 68 68 68 67 66 66 67 68 67 66 65 64 65 65 65 66 68 70 70 70 70 69 69 70 72 73 75 77 79 80 82 85 87 89 90 91 93 96 100 102 104 104 104 106 108 109 108 108 109 110
99 100 99 98 96 95 94 94 93 92 92 94 94 92 91 90 89 90 88 85 82 78 75 74 75 74 73 73 72 72 72 71 71 71 71 69 69 70 70 69 68 68 68 69 68 67 65 63 62 62 62 62 63 64 65 66 66 66 65 66 67 69 71 73 75 77 80 82 84 85 85 86 88 91 94 97 100 102 103 104 106 108 109 109 108 109
99 100 99 97 94 92 91 91 92 92 91 91 90 89 88 87 86 87 86 84 82 79 76 73 73 72 71 70 68 68 68 69 69 69 68 65 66 68 69 69 68 68 69 70 70 70 69 67 66 64 63 63 62 61 61 60 60 60 61 62 64 66 68 69 71 74 77 79 80 80 81 82 84 87 90 93 95 98 101 102 104 106 108 109 108 108
97 98 98 96 93 90 89 89 90 92 91 90 89 88 86 84 82 82 83 81 78 77 77 75 73 72 70 69 67 66 66 68 68 68 65 63 63 64 65 67 67 66 67 68 68 68 69 69 68 68 67 66 65 63 62 60 57 56 57 58 61 63 66 68 69 71 73 75 76 77 78 80 82 84 87 89 90 93 97 100 101 103 105 107 107 108
95 95 94 94 92 90 89 89 89 90 92 91 90 87 85 83 80 79 82 82 78 76 77 76 76 75 73 72 70 68 67 68 69 68 64 62 61 60 60 62 63 62 62 63 63 64 64 64 65 66 66 66 65 64 62 61 59 57 55 55 57 59 62 66 68 69 71 71 73 74 75 77 80 82 84 85 86 88 92 95 98 101 103 104 105 106
94 94 93 92 91 89 89 90 90 90 90 89 88 85 83 82 79 75 76 77 76 73 72 72 72 72 71 70 69 67 65 66 69 69 64 62 62 60 58 58 59 60 60 60 60 60 60 61 61 62 63 64 64 62 61 60 59 57 55 55 54 55 58 62 66 68 69 69 70 70 71 72 75 78 80 81 82 84 87 89 93 96 98 100 101 103
94 94 92 90 89 89 88 89 88 87 86 85 84 82 81 80 79 75 73 73 73 71 69 68 68 67 67 66 66 64 63 63 67 68 66 63 62 61 60 59 58 58 58 58 58 58 59 59 60 60 61 61 62 61 60 59 58 56 55 54 54 54 55 58 62 65 67 67 67 67 66 67 70 72 75 76 78 80 82 84 87 89 91 94 96 98
93 93 91 90 89 88 88 88 87 86 85 85 84 82 81 80 78 77 76 75 74 74 72 70 68 67 66 66 65 64 62 61 64 66 65 64 63 61 60 60 60 59 59 58 58 58 58 59 59 60 60 60 60 60 58 58 57 55 54 53 53 53 54 56 59 62 64 65 64 64 63 64 65 67 70 72 74 76 78 79 81 82 84 86 89 93
91 91 91 90 89 87 87 87 87 87 87 87 86 83 80 79 78 78 77 76 75 76 76 73 71 69 67 66 66 64 62 59 60 63 64 63 62 61 59 59 59 59 59 59 58 57 57 57 57 58 59 59 59 58 57 56 55 54 53 52 51 51 53 54 56 58 60 61 61 61 61 61 62 64 65 67 68 70 72 74 76 77 79 80 83 86
88 88 89 89 88 88 86 85 85 86 86 86 86 83 80 79 79 78 76 74 72 73 73 71 69 67 67 66 65 64 63 60 58 59 60 60 59 59 57 56 56 57 57 57 57 57 56 55 55 55 57 57 58 57 56 55 53 52 51 51 50 50 51 52 53 54 56 57 57 57 58 58 60 61 62 63 64 65 67 70 72 73 75 76 78 81
87 88 88 88 88 88 87 85 84 84 83 84 85 86 83 80 78 77 75 73 70 69 69 68 66 65 65 65 64 63 62 61 59 57 57 57 56 56 55 54 54 54 54 54 54 54 54 54 53 52 53 54 55 55 55 54 52 50 49 49 48 48 49 50 51 52 53 54 54 54 55 56 57 59 60 61 61 62 64 66 68 69 71 73 75 77
88 89 89 89 89 89 89 88 85 83 83 83 83 84 82 78 76 75 74 73 71 69 68 68 66 64 63 64 64 62 60 59 58 57 56 55 54 54 53 53 53 53 54 54 53 53 52 52 51 50 50 51 52 53 53 53 52 50 49 48 47 47 47 48 49 50 50 51 52 53 53 53 54 56 57 58 59 60 61 62 64 66 68 69 71 73
90 90 91 91 92 92 91 90 88 87 85 84 82 82 81 79 77 74 72 72 72 70 68 66 65 63 61 61 63 63 60 59 58 56 55 54 54 53 52 51 51 51 52 53 53 53 52 51 50 49 48 48 50 50 50 50 50 49 48 48 46 45 45 46 47 48 48 49 49 50 51 51 52 53 55 56 57 58 59 60 61 63 65 67 68 70
91 92 92 93 94 94 94 93 92 90 87 85 84 85 85 83 81 78 76 74 73 71 68 66 64 62 60 60 61 62 61 60 59 58 56 55 55 54 53 52 51 51 50 50 51 51 51 50 48 48 47 47 47 48 49 48 48 47 47 47 46 45 45 45 45 46 47 47 47 48 49 49 50 51 52 53 54 56 57 57 59 60 62 64 66 67
91 92 92 93 93 95 95 95 94 92 89 88 87 87 86 86 84 83 80 77 74 72 70 67 64 62 61 60 60 61 60 59 58 58 57 56 56 55 54 53 52 50 49 49 49 49 50 49 48 46 45 45 45 46 47 47 47 46 45 45 45 45 44 44 44 45 45 46 46 47 47 48 48 49 50 51 53 54 54 55 57 58 60 61 63 65
91 91 92 92 92 92 93 94 95 94 91 88 87 87 87 86 84 82 80 78 75 73 71 69 66 63 61 60 60 61 61 60 59 58 57 56 56 56 56 54 53 51 50 49 48 47 48 48 47 46 45 44 43 43 44 45 45 44 44 43 43 44 44 44 44 44 44 44 45 45 46 47 47 48 49 50 51 52 53 54 55 56 58 59 61 62
92 92 92 93 92 91 91 92 94 95 93 89 88 87 86 85 83 81 79 77 75 74 72 70 67 64 62 61 60 61 61 61 59 58 57 56 56 56 56 55 53 52 51 50 49 48 47 47 47 47 46 44 43 42 42 42 42 43 43 42 42 42 42 43 43 43 43 43 44 44 45 46 46 47 48 49 50 51 52 53 54 55 56 57 59 60
92 92 92 92 93 92 91 90 91 94 95 93 91 88 86 85 84 83 81 78 76 75 73 72 69 66 63 61 60 60 61 61 59 58 57 56 55 55 56 55 54 53 51 51 50 48 47 47 47 46 46 45 44 43 42 41 41 41 41 41 41 41 41 41 42 42 42 43 43 43 44 44 45 46 47 48 48 49 50 51 53 53 54 55 57 58
92 92 92 91 91 92 92 90 89 90 92 92 90 87 86 86 85 84 83 81 79 76 74 73 71 68 65 62 60 60 60 60 59 58 57 55 53 54 54 54 54 53 51 50 50 49 48 47 47 46 46 45 44 43 43 42 41 41 40 40 40 40 40 40 40 41 41 42 42 42 43 43 44 45 45 46 47 48 49 50 51 52 52 53 55 56
91 92 92 92 91 91 92 93 91 90 90 90 88 87 86 86 86 85 84 82 80 77 74 72 71 70 68 65 62 60 59 59 58 58 57 55 53 52 53 53 53 53 51 50 49 48 47 47 46 46 46 45 44 43 43 43 42 41 41 40 40 39 39 39 39 40 40 41 41 41 41 42 43 43 44 45 46 47 48 48 49 50 50 51 53 54
90 91 92 93 92 92 93 93 94 93 93 92 91 89 88 88 87 87 85 83 81 78 76 73 71 69 68 67 65 62 60 60 59 58 58 56 55 53 53 52 52 52 51 50 49 48 48 47 46 46 46 46 45 44 43 43 43 42 41 41 40 40 39 39 38 39 39 39 39 40 40 41 41 42 43 44 45 46 46 47 48 48 49 49 51 52
Wind_Direction
306 307 308 308 308 307 306 305 304 303 301 301 300 300 300 300 299 298 298 298 298 297 297 295 292 290 289 290 290 286 284 283 283 283 282 283 283 284 284 283 283 282 282 281 281 280 280 280 280 279 278 277 277 276 275 274 272 270 268 266 265 263 262 261 260 260 258 255 253 252 251 249 248 248 248 247 246 245 244 242 241 240 240 240 239 239
307 308 308 308 308 307 306 305 304 304 302 302 301 301 301 300 299 298 298 297 296 296 296 294 292 291 290 290 289 287 285 284 283 283 283 283 283 284 284 285 285 285 284 283 281 280 279 279 279 279 279 278 276 276 275 274 273 271 270 268 266 264 263 261 260 260 259 257 255 253 252 250 249 248 248 248 247 247 245 243 242 241 241 241 240 240
308 308 309 308 308 307 307 305 304 304 303 303 302 301 301 300 299 298 297 297 296 296 295 293 291 291 291 290 288 286 285 285 284 284 284 284 284 284 285 285 286 286 285 284 283 282 281 280 279 279 278 278 277 276 274 274 273 272 270 269 267 265 264 262 261 260 260 259 256 254 253 252 250 249 248 247 247 247 247 245 243 242 242 242 241 240
308 308 309 308 307 307 306 305 304 303 303 302 302 302 301 300 300 299 298 297 296 296 294 292 290 291 291 290 288 286 284 283 283 284 284 284 285 285 285 285 285 285 285 284 284 284 284 283 282 280 279 278 278 277 275 274 273 272 271 269 268 266 264 263 261 260 259 259 258 255 254 253 251 250 249 248 248 247 247 247 245 243 243 242 241 241
309 309 309 308 308 307 305 304 303 302 302 302 302 302 301 301 300 299 298 297 296 296 294 292 291 291 290 288 287 286 284 284 284 284 285 285 285 285 285 285 284 284 284 284 284 284 284 284 284 283 282 280 279 278 277 275 274 272 271 269 268 266 265 263 262 260 258 258 258 257 255 254 252 251 250 249 248 248 247 247 247 246 245 244 243 242
309 309 309 308 308 307 305 304 303 303 303 303 303 302 302 301 300 299 298 297 296 296 295 294 294 292 290 287 286 286 286 286 286 286 286 285 285 284 284 283 283 283 283 283 283 283 284 284 284 284 283 282 281 279 277 276 275 273 271 269 268 266 265 263 262 261 259 258 257 257 256 255 254 252 251 249 248 248 248 248 247 247 247 246 245 244
309 309 308 308 307 306 305 304 303 303 304 303 303 302 302 301 300 300 299 298 297 296 295 295 296 293 290 288 287 287 286 286 285 285 285 284 283 282 282 281 282 282 282 283 283 283 283 283 283 283 283 282 281 280 278 277 275 274 272 271 269 267 266 264 263 261 260 258 257 257 256 255 254 253 252 251 250 249 248 248 247 247 247 247 247 245
309 308 308 307 306 305 304 304 303 303 303 302 302 301 300 300 300 299 298 298 297 296 296 297 295 292 291 290 290 288 287 287 286 285 285 284 283 283 282 282 282 282 282 282 282 282 282 282 282 281 281 281 280 279 278 277 276 274 273 272 271 269 268 266 264 262 261 259 257 257 256 255 254 253 252 252 251 251 249 248 247 247 247 248 248 247
308 308 307 306 306 305 304 303 303 303 303 302 302 301 300 300 299 298 297 297 297 296 298 298 294 292 293 292 291 290 289 289 289 288 286 285 285 284 284 283 283 283 282 282 281 281 280 280 279 279 278 278 278 278 277 277 276 275 274 273 272 271 270 268 266 264 262 260 258 257 256 255 253 252 251 251 251 251 251 250 248 247 246 247 248 248
308 307 307 307 306 305 305 304 304 304 304 303 302 301 300 300 299 299 298 298 297 298 300 299 295 295 295 294 294 293 293 291 290 289 287 286 285 284 284 283 283 282 281 281 280 279 279 278 277 277 276 276 275 275 275 275 275 274 274 273 272 271 270 269 267 265 264 262 259 257 256 255 253 252 251 250 250 249 249 250 249 248 247 246 247 247
308 308 307 307 306 305 305 305 304 304 303 303 302 301 301 300 300 299 299 299 298 299 300 298 296 295 295 295 295 294 293 292 290 289 288 286 285 284 283 282 281 281 280 279 279 278 277 277 276 275 274 274 273 273 272 272 272 272 272 272 272 271 270 269 268 266 265 263 261 259 257 255 254 252 251 250 249 248 248 248 249 249 248 248 247 247
308 308 307 306 305 305 304 304 303 303 303 302 302 301 300 300 299 298 298 298 297 298 298 296 294 293 292 292 292 292 291 290 288 287 286 285 285 284 283 282 281 280 279 278 277 276 276 275 274 274 273 272 272 271 271 271 270 270 270 270 270 270 269 269 268 266 265 263 261 260 258 256 254 253 251 250 248 248 248 247 247 248 248 248 248 247
307 306 306 305 305 304 304 303 302 301 301 301 301 300 300 299 298 298 298 297 297 298 297 296 295 294 293 293 292 291 291 290 289 288 287 285 284 283 282 281 280 279 279 278 277 276 275 275 274 273 272 271 270 270 269 269 269 269 269 269 269 268 268 267 267 266 265 263 262 260 258 257 255 254 252 251 249 248 247 247 247 247 247 247 247 247
306 306 305 304 304 304 303 303 302 301 301 300 300 301 301 300 300 299 299 298 297 297 297 296 296 295 294 293 292 291 291 290 290 290 289 287 284 282 281 280 279 278 278 277 276 276 275 274 273 272 272 271 270 269 268 268 268 268 267 267 267 267 267 266 266 265 264 263 262 260 259 257 256 254 253 252 251 249 248 247 246 246 246 246 246 246
307 306 305 304 304 304 304 303 303 302 302 302 302 301 301 301 300 301 301 300 300 299 298 298 297 295 294 294 293 292 291 291 291 290 289 287 285 283 281 280 279 277 277 276 275 274 274 273 272 272 271 270 270 269 268 267 267 266 266 266 266 265 265 265 264 264 263 263 262 261 259 258 256 255 254 253 251 251 250 248 247 246 246 246 246 246
306 306 305 305 305 305 304 304 303 303 303 302 302 302 301 301 301 302 302 303 302 302 301 301 298 296 295 294 293 293 292 291 289 288 287 286 285 284 282 281 280 278 277 275 274 273 272 272 271 271 270 270 269 268 268 267 266 265 265 265 264 264 264 263 263 263 262 262 262 261 260 259 257 256 255 254 252 251 251 250 249 248 247 246 246 246
305 305 304 304 304 305 304 303 303 303 303 303 303 303 303 303 302 302 302 303 302 301 301 300 298 297 295 294 293 293 291 290 288 287 285 284 284 283 282 281 280 279 277 276 275 274 272 271 270 269 268 268 268 267 266 266 265 264 264 263 263 263 262 262 262 261 261 261 261 260 260 259 258 257 256 255 253 252 251 251 250 250 249 248 247 246
305 305 304 303 304 304 303 303 303 303 304 304 305 305 304 304 304 303 303 304 303 301 301 300 299 298 296 295 295 293 292 290 289 288 287 285 284 282 281 280 279 278 277 276 275 274 273 272 270 268 267 266 266 266 265 264 264 263 263 262 261 261 261 260 260 260 260 260 259 259 259 259 258 257 256 255 254 253 252 251 250 250 250 250 249 247
305 305 305 305 305 305 304 304 304 304 305 305 305 305 305 305 305 305 304 304 303 302 302 301 299 298 297 296 295 293 292 291 290 289 288 286 285 283 282 280 278 277 276 275 274 273 272 271 270 269 267 265 264 264 264 263 262 262 262 261 261 260 260 259 259 259 258 258 258 258 257 257 257 257 256 255 254 253 252 252 251 250 249 249 249 249
305 306 306 307 307 307 306 305 306 306 305 305 304 304 305 305 306 305 305 304 303 303 303 301 300 298 297 295 294 293 292 291 290 288 287 286 285 283 282 280 279 278 276 275 273 272 271 270 269 268 268 266 264 263 263 263 262 261 261 261 260 260 259 259 258 257 257 256 256 256 255 255 255 255 255 255 254 254 253 252 251 250 250 249 249 249
306 307 308 309 309 308 307 307 307 307 307 307 306 306 306 306 306 305 305 305 304 304 304 302 301 299 298 296 295 294 293 293 292 291 289 288 286 284 283 281 279 277 276 274 273 272 271 270 269 268 268 267 266 265 264 264 263 262 261 261 260 259 259 258 258 257 256 255 254 254 254 254 253 253 253 254 254 254 253 253 252 251 250 249 249 249
308 308 309 310 310 309 309 309 310 310 310 310 309 309 309 308 307 307 307 307 307 306 305 304 302 301 299 298 296 295 294 294 293 292 291 291 289 288 287 285 283 280 278 276 274 273 272 271 270 269 269 268 267 266 264 263 263 262 261 261 260 259 258 258 257 257 256 255 254 253 252 253 252 252 251 252 252 253 253 253 253 252 251 250 249 249
309 310 310 311 311 311 312 312 312 311 311 310 310 310 310 311 310 310 310 309 308 306 306 305 303 302 301 300 298 297 295 294 292 292 291 290 290 289 288 287 286 284 282 280 278 275 273 272 271 270 269 268 268 266 265 263 262 261 261 260 260 259 258 257 257 256 256 255 254 253 252 252 252 251 251 250 250 251 252 252 252 252 252 251 250 249
310 310 310 311 311 312 312 311 310 309 309 310 310 311 311 311 311 311 311 310 309 308 306 304 302 302 302 300 299 298 296 294 292 291 290 290 289 288 287 286 285 284 283 282 280 278 276 274 273 272 271 270 269 268 267 266 264 263 262 261 260 260 259 258 257 256 255 255 255 254 253 252 252 251 251 250 250 249 250 250 251 251 251 251 251 251
311 312 312 313 312 312 312 310 309 310 311 312 313 313 313 313 313 313 312 311 310 310 307 304 303 302 301 300 298 298 297 295 293 292 292 291 289 288 287 286 285 284 283 282 282 281 279 278 277 275 274 273 271 270 268 267 266 265 264 263 262 261 261 260 259 258 256 256 255 254 253 253 252 251 251 251 250 249 249 249 249 250 250 250 250 251
313 313 313 313 314 314 315 316 316 316 316 317 317 316 316 315 314 313 312 312 311 311 309 307 306 306 304 301 300 299 298 296 296 295 294 292 291 290 288 287 287 286 285 285 284 283 281 280 278 276 275 273 272 270 268 267 266 265 264 264 263 262 261 260 260 260 259 257 257 256 255 254 253 252 251 250 250 250 249 249 248 248 249 249 249 249
312 312 313 314 315 317 319 320 320 319 318 318 317 316 316 315 314 314 314 313 313 312 311 309 308 308 306 303 302 302 300 298 297 296 294 293 292 291 290 290 289 288 288 287 285 283 281 279 278 276 275 273 272 270 269 267 266 265 265 264 263 263 262 261 260 260 259 258 257 257 256 255 255 253 252 251 250 249 249 249 248 248 248 248 248 248
312 313 315 317 318 320 320 320 319 318 317 316 316 315 315 315 315 316 315 315 314 313 312 312 311 310 307 304 304 304 302 301 300 298 296 294 293 293 293 293 292 291 290 288 285 283 282 280 278 277 275 274 273 272 271 269 268 266 265 264 264 263 263 263 262 261 260 259 258 257 256 255 255 255 254 253 252 251 250 249 248 248 248 248 248 247
315 317 319 320 320 320 320 319 318 317 316 316 316 317 317 318 318 318 318 317 316 315 315 315 313 310 307 306 307 306 304 303 301 299 298 297 296 295 295 295 294 293 291 289 288 287 286 284 282 279 277 275 274 273 273 272 270 269 267 266 265 264 264 263 263 262 260 259 258 257 255 254 254 254 254 254 253 252 252 251 250 249 248 248 248 247
318 319 320 321 321 320 319 318 317 317 317 318 319 320 321 321 321 320 319 319 318 318 318 317 314 311 309 309 309 307 305 304 302 301 300 298 298 297 297 295 293 292 290 289 288 288 287 286 284 283 281 279 278 277 275 273 272 271 270 269 267 266 265 263 262 261 260 259 258 256 255 254 253 253 254 254 253 253 252 253 252 251 250 249 248 248
320 320 321 321 321 320 319 318 318 319 319 319 321 322 322 322 321 321 321 320 320 321 321 318 316 315 313 313 312 310 309 307 306 305 304 304 304 303 301 300 298 296 294 293 291 290 288 286 285 283 282 281 280 279 278 277 275 274 272 270 268 267 265 264 263 262 260 259 257 256 255 254 253 253 253 253 253 253 252 252 252 253 252 251 250 249
321 321 321 321 320 320 320 319 319 320 321 321 322 323 323 323 324 323 322 321 322 323 322 320 318 317 316 315 315 313 311 310 309 307 307 308 307 306 304 303 302 301 300 298 297 296 294 292 290 288 285 283 280 279 278 278 277 276 274 272 269 267 265 263 262 262 261 259 258 257 256 255 253 252 252 252 252 252 252 251 251 252 252 252 251 250
321 321 321 321 322 322 322 322 322 323 323 323 323 324 326 326 326 324 322 322 323 323 322 320 319 317 317 316 314 312 311 310 308 307 307 308 307 306 305 304 303 303 302 300 300 299 299 298 296 294 292 290 287 284 281 279 277 276 275 273 271 268 265 263 261 260 260 260 260 259 258 256 254 252 251 250 250 250 250 251 250 250 251 251 251 251
321 321 322 322 323 324 325 324 325 325 325 325 326 327 327 326 326 325 322 322 324 323 322 322 320 319 318 317 315 314 313 311 309 308 309 309 307 305 304 303 302 301 299 298 298 297 297 297 296 295 294 293 291 290 287 285 281 277 274 272 270 268 267 265 262 259 258 258 258 258 257 256 255 253 252 251 249 249 249 249 249 249 249 250 250 250
321 322 323 324 326 328 328 327 327 327 327 328 328 328 328 327 328 328 325 324 326 325 324 324 323 322 321 320 318 318 317 313 310 309 310 309 306 305 303 301 300 299 297 296 295 295 294 293 293 293 293 292 291 290 289 288 285 282 278 273 270 268 267 266 265 263 260 259 257 256 256 255 256 255 255 254 252 250 249 249 248 248 248 249 249 249
324 324 326 327 329 330 330 330 330 330 329 329 328 328 329 329 329 329 326 325 326 326 325 324 322 321 321 319 318 317 316 314 311 310 311 310 308 307 305 302 301 299 298 297 296 295 295 294 293 293 292 291 291 290 289 288 286 284 281 277 273 270 267 266 266 265 264 263 261 259 257 256 255 256 256 256 255 253 252 250 250 249 249 249 249 249
326 327 328 330 331 332 332 331 330 330 329 328 329 330 331 330 330 329 328 326 326 326 325 324 322 321 320 318 318 317 317 315 313 312 313 312 311 310 308 306 304 302 301 301 300 299 298 297 296 295 294 293 292 291 290 289 287 285 283 280 276 273 269 267 266 266 266 265 264 263 261 259 257 256 255 255 255 255 254 253 252 251 251 251 251 251
328 329 330 332 333 334 334 332 330 330 330 331 332 333 333 332 331 331 330 330 329 328 327 327 325 324 322 321 320 319 319 317 315 313 314 313 312 312 311 309 308 306 305 304 303 302 301 300 299 297 296 294 293 292 291 290 288 287 284 282 279 275 272 269 267 266 266 267 267 266 264 262 260 258 256 255 255 255 255 255 255 254 253 252 252 252
330 331 333 334 335 335 335 334 333 333 333 333 333 334 335 334 333 334 334 334 332 330 329 329 328 327 325 323 321 320 320 319 316 314 314 314 313 312 311 310 309 308 307 305 304 302 301 300 299 298 296 295 294 293 292 290 289 288 286 283 281 278 275 272 270 268 267 267 267 267 266 264 262 260 258 257 255 255 255 255 255 255 254 253 252 252
332 333 334 335 336 336 336 336 336 336 336 335 333 334 337 338 337 335 335 334 333 331 329 328 328 327 325 323 322 322 321 320 318 315 314 313 312 311 310 309 307 306 306 305 304 303 302 301 299 298 297 296 295 294 292 291 289 288 286 284 282 279 277 275 273 271 270 269 268 267 266 265 264 262 261 259 257 255 254 254 254 254 254 254 253 252
334 335 335 337 337 337 338 338 339 339 338 336 336 336 338 339 338 336 335 334 334 332 330 328 329 328 326 324 323 323 322 321 319 317 315 313 312 311 310 309 308 307 306 305 304 303 302 301 299 298 297 296 295 294 293 292 291 289 287 285 282 280 278 277 275 274 272 271 270 268 266 264 263 263 262 261 259 257 255 254 254 253 253 253 253 252
336 337 337 338 339 340 340 339 340 340 340 339 339 338 337 338 338 337 336 335 334 333 332 331 330 330 328 326 324 323 322 321 320 318 317 316 314 313 313 312 311 310 309 308 307 305 303 302 300 299 297 296 295 295 294 293 292 291 289 286 284 282 279 277 276 275 273 272 270 269 267 265 264 262 262 261 261 259 258 256 255 254 253 253 252 252
338 338 339 340 341 341 342 341 341 342 342 341 339 338 337 338 338 338 337 336 335 335 334 333 332 331 330 328 325 324 324 323 322 321 320 319 318 317 316 315 314 313 312 310 309 307 306 304 303 301 300 298 297 296 295 294 293 292 290 288 286 283 281 279 277 275 274 272 271 270 268 267 265 264 262 262 261 261 260 258 257 256 254 253 253 252
339 340 340 341 342 342 343 343 342 343 343 342 341 341 340 339 339 339 340 339 338 336 335 334 333 333 331 330 327 326 326 325 324 323 323 322 322 320 319 319 317 316 314 312 310 309 307 306 305 303 302 300 299 297 296 294 293 292 291 289 288 285 283 281 279 277 275 273 272 270 268 267 266 265 264 263 262 261 261 260 259 258 256 255 254 253
340 341 341 342 343 343 343 344 343 343 344 345 344 343 342 341 341 341 341 340 338 337 336 335 335 334 333 332 330 328 327 327 327 326 326 326 324 323 321 320 319 317 316 314 313 311 309 308 307 305 303 301 299 298 297 295 294 292 291 290 289 287 285 283 281 279 277 275 274 271 269 268 267 266 265 264 263 262 261 260 259 258 257 256 256 255
341 341 342 342 344 344 344 343 343 343 345 346 345 344 343 343 342 341 341 340 340 338 337 336 336 336 336 334 332 330 329 329 329 328 328 327 326 324 322 321 320 319 318 317 315 313 312 310 309 308 306 304 302 299 298 296 295 294 292 291 290 288 287 285 283 281 279 278 276 274 271 269 268 266 265 264 263 263 262 261 260 258 258 257 256 256
341 342 342 343 343 344 344 345 344 343 344 346 346 346 345 343 342 341 342 342 341 339 338 337 337 338 338 337 335 333 331 331 331 330 329 328 327 325 323 322 322 321 320 319 318 316 314 313 312 311 309 307 305 303 300 298 297 295 294 293 291 289 288 286 284 283 281 279 277 275 273 271 269 267 265 264 263 263 262 261 260 259 258 258 257 256
341 342 342 343 343 343 344 345 345 345 345 345 346 346 345 344 343 343 343 343 343 342 340 339 338 339 339 339 337 335 333 332 332 331 330 329 328 326 324 323 323 322 321 320 319 318 316 315 313 312 311 309 308 306 304 301 299 297 295 294 292 291 289 287 285 284 282 280 279 277 275 273 271 269 267 265 263 262 261 261 260 260 259 259 258 257
341 341 342 343 343 343 343 344 346 346 345 345 345 346 346 345 345 344 344 344 344 343 342 341 340 339 340 340 339 338 335 334 333 331 330 330 329 327 325 324 323 322 322 321 320 319 317 316 314 313 311 310 308 307 305 304 302 300 297 296 294 292 290 288 286 285 283 281 280 278 277 275 274 272 269 267 265 264 262 261 260 260 259 259 258 258
341 341 341 342 343 344 343 344 345 346 346 345 346 346 347 347 346 346 345 345 344 344 343 342 341 341 340 340 341 340 337 335 334 333 331 330 330 328 327 325 324 323 322 321 320 319 318 317 315 314 313 311 310 308 306 305 303 301 300 298 296 294 292 289 288 286 284 282 281 279 278 277 275 274 272 270 269 267 265 263 261 260 259 259 259 259
341 341 342 342 343 344 344 344 345 346 346 346 346 347 348 348 348 347 346 345 345 344 343 342 342 342 342 341 341 340 339 337 335 334 333 332 331 331 329 327 325 324 323 322 321 320 319 318 317 315 314 313 311 310 308 306 305 303 302 300 298 296 294 291 289 287 285 283 282 280 279 278 276 275 274 273 271 270 268 266 265 263 261 260 260 259